Regional Weather Roundup
Issued by NWS

Home | Current Version | Previous Version | Text Only | Print | Product List | Glossary On
Versions: 1 2 3 4 5 6 7 8 9 10 11 12 13 14 15 16 17 18 19 20 21 22 23 24 25 26 27 28 29 30 31 32 33 34 35 36 37 38 39 40 41 42 43 44 45 46 47 48 49 50
220
ASUS44 KJAN 200110
RWRMS

MISSISSIPPI HOURLY WEATHER ROUNDUP
NATIONAL WEATHER SERVICE JACKSON MS
800 PM CDT SUN OCT 19 2014

NOTE: "FAIR: INDICATES FEW OR NO CLOUDS BELOW 12,000 FEET WITH NO
SIGNIFICANT WEATHER AND/OR OBSTRUCTIONS TO VISIBILITY.

MSZ001>002-007>008-010>013-018>021-025>028-034>036-200200-
NORTHWEST MISSISSIPPI

CITY           SKY/WX    TMP DP  RH WIND       PRES   REMARKS
CLARKSDALE     FAIR      57  50  77 CALM      30.11S
CLEVELAND      FAIR      56  52  88 CALM      30.10S
GREENWOOD      CLEAR     54  51  90 CALM      30.10S
GREENVILLE     CLEAR     55  48  77 CALM      30.09
GRENADA          N/A    N/A N/A N/A MISG        N/A
OLIVE BRANCH   PTCLDY    54  52  94 CALM      30.12R
OXFORD         FAIR      50  48  93 CALM      30.12F
TUNICA         CLEAR     54  48  82 CALM      30.12S
$$

MSZ003>006-009-014>017-022>024-029>033-037>039-200200-
NORTHEAST MISSISSIPPI

CITY           SKY/WX    TMP DP  RH WIND       PRES   REMARKS
COLUMBUS AFB   CLEAR     54  50  86 NW2       30.10S
CORINTH          N/A     52  48  87 CALM        N/A
GOLDN TRIANGLE CLEAR     57  46  67 N6        30.10R
TUPELO         CLEAR     55  49  80 CALM      30.10S
$$

MSZ040-058-200200-
CENTRAL MISSISSIPPI

CITY           SKY/WX    TMP DP  RH WIND       PRES   REMARKS
JACKSON INTL   CLEAR     55  49  80 CALM      30.10
JACKSON HAWKNS CLEAR     59  49  69 CALM      30.09S
MERIDIAN KEY   CLEAR     55  51  86 S3        30.09R
MERIDIAN NAS   CLEAR     58  51  78 N3        30.09R
RAYMOND        FAIR      54  48  82 CALM      30.09S
VICKSBURG      CLEAR     52  49  89 N3        30.10R
$$

MSZ059>079-200200-
SOUTH MISSISSIPPI

CITY           SKY/WX    TMP DP  RH WIND       PRES   REMARKS
BROOKHAVEN     FAIR      55  52  88 CALM      30.10S
COLUMBIA         N/A    N/A N/A N/A MISG        N/A
HATTIESBURG    CLEAR     57  54  89 CALM      30.09R
MCCOMB         CLEAR     59  51  75 CALM      30.08R
NATCHEZ        CLEAR     57  52  82 CALM      30.10R
PINE BELT      CLEAR     55  46  71 CALM      30.10R
$$

MSZ080>082-200200-
COASTAL MISSISSIPPI

CITY           SKY/WX    TMP DP  RH WIND       PRES   REMARKS
BAY ST LOUIS   CLEAR     61  55  82 CALM      30.07R
BILOXI         CLEAR     67  53  61 CALM      30.06S
PASCAGOULA     CLEAR     56  53  90 CALM      30.06S
GULFPORT       CLEAR     62  56  80 CALM      30.06R
$$



USA.gov is the U.S. government's official web portal to all federal, state and local government web resources and services.